Change the Weather History Date:

Sunday, June 15, 2014

  Actual Average Record
Temperature  
Mean Temperature 79 °F -  
Max Temperature 96 °F 91 °F 104 °F (2008)
Min Temperature 62 °F 63 °F 59 °F (2001)
Cooling Degree Days 14    
Growing Degree Days 29 (Base 50)    
Moisture  
Dew Point 28 °F    
Average Humidity 16    
Maximum Humidity 31    
Minimum Humidity 8    
Precipitation  
Precipitation 0.00 in - - ()
Sea Level Pressure  
Sea Level Pressure 29.97 in    
Wind  
Wind Speed 11 mph (West)    
Max Wind Speed 23 mph    
Max Gust Speed 37 mph    
Visibility 10 miles    
Events      
Averages and records for this station are not official NWS values.
T = Trace of Precipitation, MM = Missing Value Source: NWS Daily Summary

Daily Weather History Graph

Daily Weather History Graph

Search for Another Location

Airport or City:

Trip Planner

Search our weather history database for the weather conditions in past years. The results will help you decide how hot, cold, wet, or windy it might be!

Date:

Astronomy

Jun. 15, 2014 Rise Set
Actual Time 6:00 AM MDT 8:16 PM MDT
Civil Twilight 5:32 AM MDT 8:44 PM MDT
Nautical Twilight 4:57 AM MDT 9:19 PM MDT
Astronomical Twilight 4:19 AM MDT 9:56 PM MDT
Moon 10:38 PM MDT (6/15) 8:48 AM MDT (6/15)
Length of Visible Light 15h 12m
Length of Day
14h 15m
Waning Gibbous, 91% of the Moon is Illuminated
Jun 15
Waning Gibbous
Jun 19
Last Quarter
Jun 27
New
Jul 5
First Quarter
Jul 12
Full

Hourly Weather History & Observations

Time (MDT) Temp. Dew Point Humidity Pressure Visibility Wind Dir Wind Speed Gust Speed Precip Events Conditions
12:15 AM 76.3 °F 30.9 °F 19% 29.94 in 10.0 mi West 9.2 mph - N/A   Clear
12:35 AM 75.0 °F 31.1 °F 20% 29.94 in 10.0 mi West 8.1 mph - N/A   Clear
12:55 AM 72.9 °F 31.3 °F 22% 29.94 in 10.0 mi West 9.2 mph - N/A   Clear
1:15 AM 72.1 °F 31.6 °F 22% 29.94 in 10.0 mi West 6.9 mph - N/A   Clear
1:35 AM 70.7 °F 31.3 °F 23% 29.94 in 10.0 mi West 9.2 mph - N/A   Clear
1:55 AM 69.3 °F 31.3 °F 24% 29.94 in 10.0 mi West 6.9 mph - N/A   Clear
2:15 AM 69.8 °F 32.0 °F 25% 29.94 in 10.0 mi West 9.2 mph - N/A   Clear
2:35 AM 69.8 °F 32.0 °F 25% 29.94 in 10.0 mi West 9.2 mph - N/A   Clear
2:55 AM 70.7 °F 32.0 °F 24% 29.94 in 10.0 mi West 9.2 mph - N/A   Clear
3:15 AM 70.2 °F 32.0 °F 24% 29.94 in 10.0 mi West 10.4 mph - N/A   Clear
3:35 AM 70.2 °F 32.0 °F 24% 29.95 in 10.0 mi West 10.4 mph - N/A   Clear
3:55 AM 69.1 °F 32.0 °F 25% 29.95 in 10.0 mi West 9.2 mph - N/A   Clear
4:15 AM 67.1 °F 31.8 °F 27% 29.95 in 10.0 mi West 6.9 mph - N/A   Clear
4:35 AM 65.7 °F 32.0 °F 29% 29.96 in 10.0 mi WSW 6.9 mph - N/A   Clear
4:55 AM 65.8 °F 32.0 °F 28% 29.97 in 10.0 mi WSW 9.2 mph - N/A   Clear
5:15 AM 65.8 °F 32.0 °F 28% 29.97 in 10.0 mi West 5.8 mph - N/A   Clear
5:35 AM 62.8 °F 31.8 °F 31% 29.97 in 10.0 mi West 6.9 mph - N/A   Clear
5:55 AM 62.6 °F 31.6 °F 31% 29.98 in 10.0 mi West 9.2 mph - N/A   Clear
6:15 AM 63.1 °F 31.8 °F 31% 29.98 in 10.0 mi West 11.5 mph - N/A   Clear
6:35 AM 66.2 °F 31.8 °F 28% 29.98 in 10.0 mi WNW 8.1 mph - N/A   Clear
6:55 AM 66.6 °F 32.0 °F 28% 29.99 in 10.0 mi West 4.6 mph - N/A   Clear
7:15 AM 69.1 °F 32.0 °F 25% 29.99 in 10.0 mi Calm Calm - N/A   Clear
7:35 AM 71.8 °F 32.0 °F 23% 30.00 in 10.0 mi Calm Calm - N/A   Clear
7:55 AM 75.7 °F 31.8 °F 20% 30.01 in 10.0 mi West 5.8 mph - N/A   Clear
8:15 AM 77.5 °F 31.1 °F 18% 30.01 in 10.0 mi West 9.2 mph - N/A   Clear
8:35 AM 78.1 °F 31.5 °F 18% 30.02 in 10.0 mi West 11.5 mph - N/A   Clear
8:55 AM 80.1 °F 29.3 °F 16% 30.03 in 10.0 mi West 11.5 mph 16.1 mph N/A   Clear
9:15 AM 81.5 °F 28.9 °F 15% 30.03 in 10.0 mi West 12.7 mph - N/A   Clear
9:35 AM 82.6 °F 25.9 °F 13% 30.03 in 10.0 mi WSW 12.7 mph 17.3 mph N/A   Clear
9:55 AM 82.9 °F 26.1 °F 13% 30.03 in 10.0 mi West 16.1 mph 21.9 mph N/A   Clear
10:15 AM 83.8 °F 29.3 °F 14% 30.03 in 10.0 mi WSW 12.7 mph 18.4 mph N/A   Clear
10:35 AM 83.8 °F 30.4 °F 14% 30.03 in 10.0 mi West 13.8 mph 19.6 mph N/A   Clear
10:55 AM 85.3 °F 30.0 °F 14% 30.03 in 10.0 mi SW 9.2 mph 18.4 mph N/A   Clear
11:15 AM 87.1 °F 28.9 °F 12% 30.03 in 10.0 mi West 18.4 mph 24.2 mph N/A   Clear
11:35 AM 88.0 °F 29.3 °F 12% 30.03 in 10.0 mi WSW 18.4 mph 25.3 mph N/A   Clear
11:55 AM 89.2 °F 30.6 °F 12% 30.02 in 10.0 mi West 17.3 mph 25.3 mph N/A   Clear
12:15 PM 89.8 °F 31.8 °F 13% 30.02 in 10.0 mi West 20.7 mph 27.6 mph N/A   Clear
12:35 PM 90.3 °F 32.0 °F 13% 30.01 in 10.0 mi SW 16.1 mph 26.5 mph N/A   Clear
12:55 PM 91.6 °F 30.2 °F 11% 30.01 in 10.0 mi SW 19.6 mph 28.8 mph N/A   Clear
1:15 PM 91.8 °F 31.3 °F 12% 30.00 in 10.0 mi WSW 10.4 mph 25.3 mph N/A   Clear
1:35 PM 93.4 °F 32.0 °F 11% 29.99 in 10.0 mi West 20.7 mph 25.3 mph N/A   Clear
1:55 PM 93.0 °F 32.0 °F 12% 29.99 in 10.0 mi SW 12.7 mph 28.8 mph N/A   Clear
2:15 PM 94.6 °F 30.6 °F 10% 29.98 in 10.0 mi WSW 18.4 mph 26.5 mph N/A   Clear
2:35 PM 93.9 °F 28.6 °F 10% 29.97 in 10.0 mi SW 19.6 mph 27.6 mph N/A   Clear
2:55 PM 95.4 °F 26.1 °F 8% 29.96 in 10.0 mi West 17.3 mph 32.2 mph N/A   Clear
3:10 PM 95.9 °F 26.6 °F 8% 29.96 in 10.0 mi SW 16.1 mph 32.2 mph N/A   Clear
3:35 PM 96.8 °F 25.7 °F 8% 29.95 in 10.0 mi WSW 16.1 mph 32.2 mph N/A   Clear
3:55 PM 95.7 °F 25.3 °F 8% 29.94 in 10.0 mi WSW 20.7 mph 36.8 mph N/A   Clear
4:35 PM 95.7 °F 28.6 °F 9% 29.93 in 10.0 mi West 20.7 mph 32.2 mph N/A   Clear
4:55 PM 96.4 °F 26.4 °F 8% 29.92 in 10.0 mi WSW 13.8 mph 34.5 mph N/A   Clear
5:15 PM 95.2 °F 26.1 °F 8% 29.92 in 10.0 mi WSW 20.7 mph 27.6 mph N/A   Clear
5:35 PM 94.8 °F 24.8 °F 8% 29.91 in 10.0 mi WSW 23.0 mph 28.8 mph N/A   Clear
5:55 PM 94.5 °F 24.6 °F 8% 29.91 in 10.0 mi West 16.1 mph 28.8 mph N/A   Clear
6:15 PM 94.6 °F 23.5 °F 8% 29.91 in 10.0 mi WSW 21.9 mph 27.6 mph N/A   Clear
6:35 PM 93.7 °F 24.3 °F 8% 29.91 in 10.0 mi WSW 16.1 mph 27.6 mph N/A   Clear
6:55 PM 93.4 °F 23.2 °F 8% 29.91 in 10.0 mi WSW 16.1 mph 27.6 mph N/A   Clear
7:15 PM 92.5 °F 21.4 °F 8% 29.91 in 10.0 mi West 13.8 mph 21.9 mph N/A   Clear
7:35 PM 91.6 °F 21.2 °F 8% 29.91 in 10.0 mi WSW 17.3 mph - N/A   Clear
7:55 PM 90.0 °F 20.8 °F 8% 29.92 in 10.0 mi West 17.3 mph 23.0 mph N/A   Clear
8:15 PM 88.5 °F 22.1 °F 9% 29.92 in 10.0 mi West 13.8 mph - N/A   Clear
8:35 PM 86.7 °F 18.1 °F 8% 29.94 in 10.0 mi WNW 15.0 mph 20.7 mph N/A   Clear
8:55 PM 85.8 °F 20.8 °F 9% 29.95 in 10.0 mi West 10.4 mph 19.6 mph N/A   Clear
9:15 PM 84.7 °F 21.2 °F 10% 29.96 in 10.0 mi WNW 10.4 mph - N/A   Clear
9:35 PM 83.1 °F 21.2 °F 10% 29.96 in 10.0 mi WNW 8.1 mph - N/A   Clear
10:15 PM 79.9 °F 20.3 °F 11% 29.99 in 10.0 mi WNW 8.1 mph - N/A   Clear
10:35 PM 78.3 °F 20.1 °F 11% 29.99 in 10.0 mi WNW 9.2 mph - N/A   Clear
10:55 PM 77.0 °F 19.6 °F 12% 29.99 in 10.0 mi WNW 8.1 mph - N/A   Clear
11:15 PM 75.7 °F 18.9 °F 12% 29.99 in 10.0 mi WNW 9.2 mph - N/A   Clear
11:35 PM 74.5 °F 18.3 °F 12% 30.00 in 10.0 mi WNW 9.2 mph - N/A   Clear
11:55 PM 74.3 °F 17.8 °F 12% 30.00 in 10.0 mi WNW 8.1 mph - N/A   Clear